QPF
0.03 0.04 0.06 0.08 0.11 0.13 0.15 0.15 0.16 0.19 0.17 0.15 0.14 0.13 0.09 0.07 0.05 0.02 0.01 0.01 0.00 0.00 0.00 0.00 0.00 0.00 0.00 0.00 0.00 0.00 0.00 0.01 0.01 0.01 0.01 0.02 0.04 0.05
0.01 0.02 0.03 0.05 0.08 0.10 0.12 0.16 0.17 0.19 0.18 0.16 0.17 0.21 0.20 0.14 0.10 0.04 0.02 0.01 0.00 0.00 0.00 0.00 0.00 0.00 0.00 0.00 0.00 0.00 0.00 0.00 0.01 0.01 0.01 0.01 0.01 0.01
0.00 0.01 0.01 0.03 0.06 0.09 0.10 0.12 0.16 0.19 0.19 0.20 0.22 0.25 0.28 0.28 0.20 0.12 0.04 0.01 0.00 0.00 0.00 0.00 0.00 0.00 0.00 0.00 0.00 0.00 0.00 0.00 0.00 0.01 0.01 0.01 0.01 0.02
0.01 0.01 0.01 0.01 0.02 0.05 0.07 0.08 0.10 0.15 0.20 0.23 0.24 0.27 0.28 0.27 0.24 0.17 0.08 0.03 0.01 0.00 0.00 0.00 0.00 0.00 0.00 0.00 0.00 0.00 0.00 0.00 0.01 0.01 0.01 0.01 0.01 0.01
0.02 0.01 0.01 0.01 0.01 0.03 0.05 0.06 0.07 0.09 0.13 0.19 0.24 0.27 0.35 0.34 0.25 0.17 0.12 0.06 0.02 0.00 0.00 0.00 0.00 0.00 0.00 0.00 0.00 0.00 0.00 0.00 0.00 0.00 0.00 0.00 0.00 0.00
0.02 0.02 0.02 0.02 0.02 0.02 0.03 0.04 0.06 0.06 0.09 0.14 0.20 0.27 0.33 0.42 0.35 0.23 0.17 0.11 0.04 0.01 0.00 0.00 0.00 0.00 0.00 0.00 0.00 0.00 0.00 0.00 0.00 0.00 0.00 0.00 0.00 0.00
0.03 0.02 0.02 0.02 0.02 0.02 0.02 0.04 0.05 0.06 0.06 0.10 0.15 0.21 0.31 0.38 0.37 0.28 0.18 0.12 0.07 0.02 0.00 0.00 0.00 0.00 0.00 0.00 0.00 0.00 0.00 0.00 0.00 0.00 0.00 0.00 0.00 0.00
0.03 0.03 0.03 0.03 0.03 0.03 0.02 0.03 0.04 0.05 0.06 0.06 0.10 0.16 0.22 0.32 0.38 0.37 0.26 0.15 0.07 0.02 0.01 0.00 0.00 0.00 0.00 0.00 0.00 0.00 0.00 0.00 0.00 0.00 0.00 0.00 0.00 0.00
0.04 0.04 0.04 0.03 0.03 0.03 0.03 0.03 0.03 0.04 0.05 0.05 0.05 0.09 0.16 0.23 0.30 0.38 0.31 0.19 0.09 0.05 0.02 0.01 0.00 0.00 0.00 0.00 0.01 0.00 0.00 0.00 0.00 0.00 0.00 0.00 0.00 0.00
0.05 0.05 0.06 0.05 0.04 0.04 0.03 0.03 0.03 0.03 0.03 0.04 0.04 0.05 0.09 0.18 0.27 0.32 0.34 0.27 0.17 0.10 0.05 0.03 0.01 0.00 0.00 0.00 0.00 0.00 0.00 0.00 0.00 0.00 0.00 0.00 0.00 0.00
0.05 0.05 0.06 0.05 0.04 0.04 0.04 0.04 0.04 0.03 0.03 0.04 0.04 0.05 0.06 0.11 0.21 0.31 0.34 0.29 0.20 0.11 0.06 0.03 0.01 0.01 0.00 0.00 0.00 0.00 0.00 0.00 0.00 0.00 0.00 0.00 0.00 0.00
0.06 0.06 0.06 0.06 0.05 0.05 0.04 0.04 0.04 0.04 0.04 0.03 0.04 0.04 0.05 0.07 0.14 0.22 0.26 0.22 0.17 0.10 0.06 0.03 0.02 0.01 0.00 0.00 0.00 0.00 0.00 0.00 0.00 0.00 0.00 0.00 0.00 0.00
0.04 0.06 0.06 0.06 0.05 0.04 0.03 0.03 0.02 0.04 0.06 0.05 0.04 0.04 0.04 0.05 0.09 0.15 0.21 0.19 0.14 0.08 0.05 0.03 0.01 0.01 0.00 0.00 0.00 0.00 0.00 0.00 0.00 0.00 0.00 0.00 0.00 0.00
0.04 0.05 0.06 0.06 0.05 0.04 0.03 0.03 0.02 0.03 0.05 0.07 0.05 0.04 0.04 0.04 0.07 0.12 0.14 0.16 0.14 0.11 0.08 0.05 0.02 0.01 0.00 0.00 0.00 0.00 0.00 0.00 0.00 0.00 0.00 0.00 0.00 0.00
0.03 0.03 0.05 0.05 0.05 0.04 0.03 0.03 0.02 0.02 0.03 0.06 0.06 0.05 0.03 0.05 0.08 0.13 0.15 0.14 0.14 0.13 0.10 0.07 0.04 0.02 0.00 0.00 0.00 0.00 0.00 0.00 0.00 0.00 0.00 0.00 0.00 0.00
0.03 0.03 0.04 0.04 0.04 0.04 0.03 0.02 0.02 0.02 0.01 0.02 0.05 0.05 0.05 0.06 0.09 0.12 0.15 0.15 0.14 0.14 0.11 0.08 0.05 0.02 0.01 0.00 0.00 0.00 0.00 0.00 0.00 0.00 0.00 0.00 0.00 0.00
0.03 0.02 0.03 0.03 0.03 0.03 0.02 0.02 0.01 0.01 0.01 0.01 0.03 0.04 0.05 0.07 0.09 0.11 0.15 0.15 0.12 0.12 0.11 0.09 0.06 0.04 0.02 0.01 0.00 0.00 0.00 0.00 0.00 0.00 0.00 0.00 0.00 0.00
0.02 0.02 0.02 0.02 0.02 0.02 0.02 0.01 0.01 0.01 0.01 0.00 0.01 0.03 0.04 0.07 0.08 0.11 0.14 0.15 0.13 0.11 0.10 0.08 0.07 0.07 0.05 0.02 0.01 0.00 0.00 0.00 0.00 0.00 0.00 0.00 0.00 0.00
0.01 0.02 0.02 0.02 0.02 0.02 0.02 0.02 0.01 0.01 0.02 0.01 0.01 0.01 0.03 0.07 0.08 0.10 0.13 0.15 0.14 0.13 0.11 0.09 0.07 0.06 0.05 0.03 0.01 0.00 0.00 0.00 0.00 0.00 0.00 0.00 0.00 0.00
0.01 0.01 0.01 0.01 0.02 0.02 0.01 0.02 0.02 0.02 0.02 0.02 0.01 0.01 0.02 0.05 0.08 0.10 0.12 0.13 0.14 0.14 0.14 0.11 0.07 0.04 0.03 0.03 0.02 0.01 0.00 0.00 0.00 0.00 0.00 0.00 0.00 0.00
0.01 0.01 0.01 0.01 0.01 0.02 0.01 0.02 0.02 0.03 0.03 0.02 0.02 0.02 0.03 0.05 0.07 0.09 0.12 0.14 0.14 0.13 0.12 0.10 0.07 0.05 0.05 0.04 0.03 0.01 0.01 0.00 0.00 0.00 0.00 0.00 0.00 0.00
0.02 0.01 0.01 0.01 0.01 0.02 0.02 0.02 0.03 0.04 0.04 0.03 0.03 0.03 0.05 0.07 0.07 0.09 0.12 0.13 0.12 0.12 0.12 0.11 0.10 0.08 0.06 0.04 0.03 0.01 0.01 0.01 0.00 0.00 0.00 0.00 0.00 0.00
0.03 0.02 0.02 0.01 0.01 0.02 0.01 0.02 0.03 0.03 0.03 0.03 0.03 0.05 0.06 0.08 0.08 0.10 0.11 0.14 0.13 0.13 0.14 0.14 0.12 0.09 0.07 0.05 0.03 0.02 0.01 0.01 0.01 0.01 0.01 0.00 0.00 0.00
MSLP
1011.42 1011.49 1011.54 1011.53 1011.46 1011.31 1011.09 1010.80 1010.48 1010.17 1009.90 1009.73 1009.67 1009.75 1009.96 1010.28 1010.69 1011.15 1011.61 1012.05 1012.42 1012.73 1012.97 1013.15 1013.29 1013.42 1013.55 1013.72 1013.92 1014.18 1014.47 1014.80 1015.14 1015.48 1015.79 1016.06 1016.28 1016.45
1011.19 1011.32 1011.41 1011.46 1011.44 1011.33 1011.15 1010.92 1010.65 1010.40 1010.19 1010.07 1010.06 1010.17 1010.40 1010.73 1011.13 1011.56 1011.98 1012.36 1012.68 1012.94 1013.12 1013.25 1013.34 1013.42 1013.51 1013.62 1013.79 1013.99 1014.25 1014.53 1014.83 1015.13 1015.41 1015.65 1015.84 1015.98
1010.79 1010.95 1011.10 1011.20 1011.23 1011.20 1011.09 1010.94 1010.76 1010.60 1010.47 1010.43 1010.48 1010.63 1010.88 1011.21 1011.59 1011.98 1012.36 1012.70 1012.98 1013.20 1013.35 1013.45 1013.51 1013.57 1013.63 1013.72 1013.84 1014.01 1014.22 1014.45 1014.71 1014.96 1015.19 1015.38 1015.53 1015.64
1010.23 1010.42 1010.60 1010.75 1010.85 1010.90 1010.89 1010.84 1010.77 1010.71 1010.68 1010.71 1010.83 1011.02 1011.29 1011.61 1011.97 1012.33 1012.68 1012.99 1013.25 1013.46 1013.60 1013.71 1013.78 1013.85 1013.91 1013.99 1014.09 1014.22 1014.38 1014.57 1014.76 1014.95 1015.13 1015.27 1015.37 1015.43
1009.56 1009.76 1009.96 1010.16 1010.32 1010.45 1010.53 1010.59 1010.63 1010.67 1010.74 1010.85 1011.02 1011.24 1011.52 1011.84 1012.18 1012.52 1012.85 1013.16 1013.43 1013.66 1013.84 1013.99 1014.11 1014.22 1014.31 1014.40 1014.50 1014.61 1014.73 1014.86 1014.99 1015.11 1015.22 1015.31 1015.36 1015.37
1008.82 1009.01 1009.22 1009.45 1009.67 1009.87 1010.04 1010.20 1010.34 1010.48 1010.63 1010.80 1011.01 1011.25 1011.53 1011.83 1012.16 1012.49 1012.83 1013.15 1013.46 1013.74 1014.00 1014.23 1014.44 1014.62 1014.77 1014.90 1015.02 1015.12 1015.21 1015.28 1015.35 1015.41 1015.46 1015.48 1015.48 1015.46
1008.04 1008.21 1008.42 1008.67 1008.93 1009.19 1009.45 1009.68 1009.91 1010.12 1010.33 1010.55 1010.78 1011.03 1011.30 1011.60 1011.91 1012.24 1012.59 1012.95 1013.31 1013.68 1014.04 1014.38 1014.70 1014.98 1015.22 1015.41 1015.56 1015.67 1015.75 1015.79 1015.81 1015.82 1015.81 1015.78 1015.75 1015.69
1007.26 1007.40 1007.60 1007.86 1008.16 1008.47 1008.78 1009.08 1009.37 1009.65 1009.91 1010.15 1010.39 1010.64 1010.90 1011.17 1011.47 1011.80 1012.17 1012.57 1013.01 1013.47 1013.94 1014.40 1014.84 1015.24 1015.58 1015.86 1016.07 1016.21 1016.29 1016.32 1016.32 1016.29 1016.24 1016.19 1016.13 1016.06
1006.48 1006.60 1006.79 1007.06 1007.38 1007.72 1008.08 1008.44 1008.78 1009.10 1009.39 1009.66 1009.91 1010.14 1010.38 1010.64 1010.92 1011.25 1011.63 1012.07 1012.57 1013.11 1013.68 1014.27 1014.83 1015.35 1015.81 1016.18 1016.46 1016.65 1016.77 1016.81 1016.81 1016.77 1016.72 1016.66 1016.60 1016.55
1005.71 1005.81 1006.00 1006.28 1006.61 1006.99 1007.39 1007.79 1008.18 1008.54 1008.86 1009.15 1009.40 1009.63 1009.85 1010.08 1010.35 1010.66 1011.05 1011.51 1012.05 1012.65 1013.31 1013.98 1014.65 1015.28 1015.84 1016.32 1016.69 1016.95 1017.12 1017.22 1017.25 1017.24 1017.21 1017.17 1017.14 1017.12
1004.96 1005.05 1005.25 1005.52 1005.88 1006.29 1006.72 1007.17 1007.60 1008.00 1008.36 1008.67 1008.93 1009.16 1009.37 1009.58 1009.83 1010.12 1010.49 1010.95 1011.50 1012.13 1012.83 1013.57 1014.32 1015.04 1015.69 1016.26 1016.72 1017.08 1017.33 1017.49 1017.58 1017.63 1017.65 1017.66 1017.68 1017.72
1004.24 1004.33 1004.53 1004.81 1005.18 1005.62 1006.09 1006.57 1007.05 1007.50 1007.90 1008.25 1008.53 1008.77 1008.98 1009.18 1009.40 1009.67 1010.01 1010.43 1010.96 1011.59 1012.30 1013.06 1013.85 1014.63 1015.36 1016.01 1016.56 1017.01 1017.36 1017.61 1017.78 1017.90 1017.99 1018.07 1018.15 1018.25
1003.57 1003.67 1003.86 1004.16 1004.54 1004.99 1005.49 1006.01 1006.53 1007.03 1007.48 1007.87 1008.19 1008.46 1008.68 1008.87 1009.07 1009.31 1009.60 1009.98 1010.46 1011.05 1011.72 1012.48 1013.27 1014.08 1014.86 1015.58 1016.22 1016.76 1017.20 1017.55 1017.82 1018.02 1018.19 1018.34 1018.48 1018.63
1003.00 1003.09 1003.29 1003.58 1003.95 1004.41 1004.93 1005.48 1006.03 1006.57 1007.07 1007.51 1007.88 1008.18 1008.43 1008.63 1008.81 1009.01 1009.26 1009.58 1010.00 1010.52 1011.14 1011.84 1012.62 1013.42 1014.23 1015.00 1015.70 1016.33 1016.86 1017.30 1017.66 1017.96 1018.20 1018.41 1018.61 1018.81
1002.54 1002.64 1002.82 1003.09 1003.46 1003.91 1004.42 1004.98 1005.56 1006.13 1006.66 1007.15 1007.57 1007.91 1008.18 1008.40 1008.58 1008.76 1008.96 1009.22 1009.56 1010.00 1010.55 1011.19 1011.92 1012.70 1013.50 1014.30 1015.05 1015.75 1016.36 1016.89 1017.33 1017.70 1018.01 1018.28 1018.52 1018.75
1002.23 1002.31 1002.48 1002.73 1003.06 1003.48 1003.98 1004.52 1005.10 1005.68 1006.24 1006.76 1007.22 1007.60 1007.91 1008.14 1008.33 1008.49 1008.66 1008.86 1009.14 1009.50 1009.96 1010.53 1011.20 1011.94 1012.73 1013.53 1014.32 1015.05 1015.73 1016.32 1016.84 1017.27 1017.63 1017.94 1018.21 1018.47
1002.05 1002.12 1002.26 1002.48 1002.78 1003.16 1003.61 1004.12 1004.67 1005.24 1005.81 1006.34 1006.83 1007.24 1007.58 1007.84 1008.04 1008.20 1008.34 1008.51 1008.72 1009.01 1009.41 1009.90 1010.50 1011.19 1011.95 1012.74 1013.53 1014.30 1015.02 1015.66 1016.23 1016.71 1017.11 1017.45 1017.75 1018.01
1001.95 1002.02 1002.15 1002.34 1002.59 1002.92 1003.32 1003.78 1004.29 1004.83 1005.37 1005.91 1006.40 1006.83 1007.19 1007.47 1007.69 1007.86 1007.99 1008.14 1008.31 1008.55 1008.88 1009.32 1009.85 1010.49 1011.21 1011.98 1012.77 1013.54 1014.28 1014.96 1015.56 1016.08 1016.52 1016.88 1017.20 1017.48
1001.86 1001.95 1002.07 1002.23 1002.46 1002.74 1003.08 1003.49 1003.94 1004.43 1004.94 1005.45 1005.93 1006.37 1006.74 1007.05 1007.28 1007.46 1007.61 1007.75 1007.90 1008.12 1008.40 1008.79 1009.28 1009.87 1010.54 1011.28 1012.06 1012.83 1013.58 1014.28 1014.91 1015.45 1015.92 1016.32 1016.65 1016.95
1001.70 1001.81 1001.94 1002.11 1002.31 1002.56 1002.86 1003.21 1003.60 1004.04 1004.50 1004.97 1005.43 1005.85 1006.23 1006.55 1006.81 1007.01 1007.18 1007.33 1007.49 1007.69 1007.96 1008.32 1008.78 1009.33 1009.97 1010.68 1011.44 1012.20 1012.96 1013.67 1014.31 1014.89 1015.39 1015.81 1016.18 1016.51
1001.39 1001.53 1001.69 1001.87 1002.08 1002.31 1002.58 1002.89 1003.23 1003.61 1004.02 1004.45 1004.87 1005.27 1005.65 1005.97 1006.25 1006.48 1006.68 1006.86 1007.05 1007.27 1007.55 1007.90 1008.34 1008.87 1009.49 1010.18 1010.92 1011.67 1012.42 1013.14 1013.81 1014.41 1014.93 1015.39 1015.80 1016.17
1000.88 1001.07 1001.27 1001.49 1001.71 1001.95 1002.20 1002.48 1002.78 1003.12 1003.47 1003.85 1004.23 1004.61 1004.97 1005.30 1005.60 1005.86 1006.10 1006.33 1006.56 1006.82 1007.13 1007.50 1007.95 1008.48 1009.09 1009.76 1010.49 1011.23 1011.98 1012.70 1013.38 1014.00 1014.56 1015.06 1015.50 1015.91
1000.19 1000.42 1000.67 1000.92 1001.18 1001.43 1001.69 1001.95 1002.22 1002.51 1002.82 1003.15 1003.49 1003.83 1004.18 1004.51 1004.83 1005.13 1005.42 1005.71 1006.00 1006.32 1006.68 1007.09 1007.57 1008.11 1008.73 1009.40 1010.11 1010.85 1011.59 1012.32 1013.00 1013.64 1014.23 1014.75 1015.24 1015.68
Thickness
5639 5641 5644 5648 5652 5656 5661 5665 5667 5670 5677 5686 5695 5702 5707 5710 5713 5715 5717 5718 5720 5722 5723 5723 5725 5726 5727 5728 5727 5727 5726 5725 5724 5722 5721 5719 5718 5716
5629 5631 5634 5637 5642 5646 5651 5656 5660 5663 5668 5678 5685 5691 5696 5700 5702 5706 5708 5710 5712 5714 5716 5718 5720 5722 5723 5724 5725 5725 5724 5723 5722 5721 5720 5718 5717 5716
5618 5620 5623 5627 5631 5635 5639 5645 5650 5655 5659 5667 5676 5681 5685 5689 5691 5694 5697 5700 5703 5706 5709 5711 5714 5716 5718 5719 5721 5722 5721 5720 5719 5719 5718 5717 5715 5714
5606 5609 5612 5616 5619 5623 5628 5633 5638 5644 5650 5655 5662 5669 5674 5679 5682 5683 5687 5690 5693 5696 5700 5704 5706 5709 5711 5713 5716 5716 5716 5716 5716 5715 5715 5714 5713 5711
5594 5597 5600 5603 5607 5611 5616 5621 5627 5634 5640 5646 5651 5658 5664 5669 5671 5673 5676 5680 5682 5686 5691 5694 5698 5701 5703 5706 5709 5710 5711 5711 5711 5711 5711 5710 5709 5708
5582 5585 5589 5592 5597 5600 5605 5609 5615 5620 5627 5634 5640 5646 5652 5658 5662 5664 5665 5669 5672 5676 5681 5684 5688 5691 5694 5698 5701 5703 5704 5705 5705 5706 5706 5705 5704 5703
5568 5572 5577 5581 5586 5590 5595 5599 5604 5609 5615 5622 5629 5636 5642 5648 5653 5657 5658 5659 5661 5666 5670 5674 5678 5681 5684 5688 5691 5694 5697 5698 5698 5699 5699 5699 5698 5697
5553 5557 5563 5569 5574 5579 5585 5590 5594 5599 5604 5611 5619 5626 5634 5640 5646 5649 5651 5653 5654 5658 5662 5664 5668 5670 5674 5678 5682 5686 5688 5690 5691 5692 5692 5692 5692 5691
5538 5542 5549 5557 5562 5566 5572 5578 5584 5591 5597 5603 5610 5617 5625 5633 5637 5641 5646 5650 5652 5654 5654 5654 5657 5660 5664 5668 5672 5676 5679 5681 5683 5683 5684 5685 5684 5683
5526 5530 5535 5542 5549 5554 5559 5565 5572 5579 5588 5595 5603 5610 5616 5623 5630 5636 5640 5641 5642 5644 5649 5648 5648 5651 5654 5658 5662 5666 5670 5673 5674 5675 5675 5676 5676 5675
5517 5521 5524 5530 5538 5544 5548 5554 5560 5567 5575 5584 5592 5600 5607 5615 5621 5624 5628 5631 5634 5637 5642 5644 5641 5641 5644 5647 5652 5656 5660 5663 5665 5666 5666 5667 5668 5667
5509 5512 5517 5522 5527 5533 5539 5544 5550 5557 5565 5573 5580 5587 5595 5604 5611 5618 5624 5628 5632 5633 5636 5638 5636 5636 5636 5638 5642 5646 5650 5653 5655 5657 5658 5659 5659 5659
5504 5507 5511 5516 5520 5525 5531 5537 5544 5549 5555 5562 5569 5576 5584 5592 5600 5608 5615 5623 5629 5633 5636 5635 5633 5633 5634 5633 5634 5638 5641 5644 5646 5648 5649 5650 5650 5651
5502 5504 5507 5511 5515 5520 5525 5531 5536 5541 5547 5553 5560 5567 5574 5582 5590 5598 5606 5615 5623 5629 5633 5635 5634 5633 5631 5629 5630 5631 5633 5636 5639 5640 5642 5642 5642 5642
5500 5502 5506 5509 5512 5516 5521 5525 5530 5534 5540 5545 5552 5560 5567 5575 5581 5589 5596 5605 5612 5618 5624 5629 5633 5631 5631 5631 5629 5629 5629 5629 5632 5633 5634 5635 5635 5635
5498 5501 5505 5507 5510 5514 5518 5521 5525 5530 5536 5541 5547 5553 5560 5567 5574 5582 5589 5596 5602 5608 5614 5621 5625 5627 5627 5628 5629 5628 5628 5628 5628 5628 5628 5628 5629 5629
5497 5498 5500 5503 5506 5510 5514 5518 5522 5526 5531 5536 5541 5546 5553 5561 5568 5575 5582 5588 5595 5602 5606 5610 5615 5619 5623 5624 5623 5624 5624 5623 5625 5624 5622 5622 5623 5624
5496 5498 5501 5503 5507 5511 5514 5516 5519 5523 5528 5533 5537 5542 5548 5554 5561 5568 5575 5582 5590 5596 5601 5605 5607 5608 5611 5614 5621 5622 5620 5620 5620 5619 5619 5617 5617 5618
5496 5499 5501 5504 5507 5511 5514 5517 5520 5524 5527 5531 5535 5539 5544 5549 5556 5563 5571 5577 5584 5590 5595 5600 5604 5607 5609 5611 5613 5618 5619 5617 5615 5613 5613 5614 5614 5615
5497 5500 5502 5506 5509 5512 5516 5518 5521 5524 5527 5531 5535 5538 5542 5547 5553 5560 5567 5573 5579 5584 5589 5594 5601 5607 5611 5612 5610 5611 5614 5615 5613 5610 5608 5608 5608 5609
5500 5502 5505 5508 5511 5515 5518 5521 5524 5526 5529 5532 5535 5538 5542 5546 5551 5557 5563 5569 5575 5580 5586 5592 5598 5601 5603 5603 5603 5604 5606 5610 5612 5610 5606 5602 5600 5600
5505 5507 5509 5512 5515 5518 5520 5523 5525 5528 5530 5533 5535 5538 5541 5545 5550 5556 5561 5567 5572 5578 5584 5587 5589 5593 5597 5600 5601 5600 5599 5601 5603 5605 5605 5605 5602 5598
5511 5513 5514 5516 5519 5521 5523 5525 5528 5530 5533 5534 5536 5538 5541 5545 5550 5555 5560 5565 5570 5574 5578 5581 5584 5588 5593 5596 5596 5595 5595 5594 5595 5595 5595 5599 5602 5604